Powrót do katalogu

ATLAS 5 CENTAUR DEB

LostHEO
NORAD 49350·DEBRIS·🇺🇸 United States

Wystrzelony Oct 17, 2018 z Cape Canaveral Space Force Station

Loading…

Następne Przeloty (najbliższe 24 godziny)

TLE

NieaktualneSource: Space-Track

Epoka: Jan 4, 2022, 08:29 UTC

1 49350U 18079FB  22004.35389420 -.00000060  00000-0  00000+0 0  9994
2 49350  11.4071 165.1154 4568404  71.7083 331.6995  1.99225022  2546

Śledź ATLAS 5 CENTAUR DEB w czasie rzeczywistym z AllMySat

Download on the App Store